Location: Monfort
(47.1967°N, 0.2115°W)
Time: 22:53:30
(UTC+00:00)

Cosmos 1697 Rocket - Visible Passes

Search period start: 01 March 2021 00:00
Search period end: 11 March 2021 00:00
Orbit: 832 x 843 km, 71.0° (Epoch: 01 March)

Date Brightness Start Highest point End Pass type
(mag) Time Alt. Az. Time Alt. Az. Time Alt. Az.
01 Mar 5.4 19:52:31 10° WNW 19:54:52 12° NNW 19:57:13 10° N visible
02 Mar 5.3 19:36:01 10° WNW 19:38:35 13° NW 19:41:10 10° N visible
03 Mar 5.3 19:19:31 10° WNW 19:22:18 14° NW 19:25:06 10° N visible
04 Mar 5.3 19:03:03 10° WNW 19:06:02 14° NW 19:09:02 10° N visible
05 Mar 5.2 18:46:36 10° WNW 18:49:46 15° NW 18:52:57 10° N visible
06 Mar 5.2 18:30:09 10° WNW 18:33:30 16° NW 18:36:51 10° N visible
07 Mar 5.6 23:33:41 10° N 23:33:45 10° N 23:33:45 10° N visible
08 Mar 5.5 23:17:33 10° N 23:17:54 11° N 23:17:54 11° N visible
09 Mar 5.4 23:01:26 10° N 23:02:04 12° N 23:02:04 12° N visible
10 Mar 5.3 22:45:19 10° N 22:46:13 13° N 22:46:13 13° N visible
